{"data":{"norad_id":54790,"intl_designator":"2022-175AJ","name":"STARLINK-5445","alt_names":[],"object_type":"PAYLOAD","status":"ACTIVE","operator":null,"country":"US","launch_date":"2022-12-17","launch_site_code":"AFETR","launch_vehicle":null,"mission":null,"orbit_class":"UNKNOWN","rcs_meters":null,"size_class":null,"mass_kg":null,"dimensions":null,"purposes":["comms"],"wikipedia_slug":null,"has_3d_model":false,"image_url":null,"decayed_at":null,"tle_current":{"epoch":"2026-05-25T03:19:02.320320Z","epoch_age_seconds":62878,"freshness":"FRESH","line1":"1 54790U 22175AJ  26145.13822130 -.00000060  00000+0  14329-4 0  9999","line2":"2 54790  53.2129  45.7178 0001198  79.0430 281.0696 15.08837461191672","mean_motion":15.08837461,"eccentricity":0.0001198,"inclination_deg":53.2129,"raan_deg":45.7178,"arg_perigee_deg":79.043,"mean_anomaly_deg":281.0696,"bstar":1.4329e-5,"rev_number":19167,"period_min":95.437715275549,"perigee_km":538.92238668191,"apogee_km":540.57991268258,"semimajor_km":6917.8881496822,"source":"CELESTRAK","updated_at":"2026-05-25T13:38:17.694486Z"}}}